Wind_Speed
36 37 38 39 40 42 43 44 44 44 45 45 44 43 40 40 42 42 42 41 41 40 40 40 39 38 39 39 39 39 38 38 37 37 36 37 37 37 37 37 37 36 35 35
34 34 34 35 37 39 40 41 41 41 42 43 43 42 39 39 41 42 41 41 41 41 41 41 41 41 41 41 42 42 41 41 41 40 40 40 41 42 41 40 40 38 38 38
30 30 31 32 32 34 35 36 37 38 39 40 41 39 37 37 38 39 40 41 41 41 42 43 43 44 44 44 44 44 45 45 44 44 44 44 44 43 43 42 42 41 41 41
29 29 29 29 29 30 31 32 33 33 34 35 37 36 30 33 34 35 37 38 39 41 42 43 44 45 46 46 47 47 48 48 48 48 47 47 46 45 45 45 45 45 45 44
28 28 28 28 27 28 27 27 27 28 30 31 31 34 27 28 30 32 34 36 38 40 42 43 45 46 47 49 50 50 51 52 52 52 51 51 50 49 48 47 47 47 47 46
27 26 26 25 25 24 23 23 23 24 25 26 25 30 27 25 29 32 34 36 39 41 43 45 47 48 50 52 53 54 55 55 56 56 56 55 54 52 51 49 49 49 49 48
25 24 24 23 23 22 21 21 21 21 22 22 23 26 27 27 29 32 35 37 40 43 45 48 50 51 53 54 55 56 57 58 59 59 59 59 58 56 54 52 51 50 50 49
23 23 22 22 21 20 19 19 19 20 20 20 22 24 25 28 30 32 35 38 41 44 47 49 51 52 54 55 56 58 58 58 59 60 60 60 60 58 56 54 52 51 51 50
24 23 21 20 19 19 18 18 17 18 19 20 22 23 25 28 30 33 35 38 41 43 45 47 50 52 53 55 56 57 58 58 58 58 59 59 58 59 58 55 53 52 52 51
24 22 21 19 19 18 17 17 17 18 20 22 22 22 24 26 29 32 35 37 40 42 44 46 49 51 52 53 54 55 56 57 58 58 57 58 58 57 56 55 53 52 51 50
23 21 20 19 19 18 17 17 18 19 21 22 22 20 23 25 28 30 33 35 37 40 43 46 48 49 51 52 53 53 53 53 54 55 56 57 57 56 55 54 53 51 50 49
22 21 20 19 18 17 17 17 18 19 20 21 21 19 21 24 27 29 30 33 36 39 43 46 48 50 51 51 49 49 48 49 50 51 52 54 54 54 53 52 51 49 48 47
21 20 20 19 18 17 16 17 18 18 19 19 19 16 20 23 24 26 29 32 35 38 41 44 45 47 47 46 44 43 42 43 44 45 47 49 50 51 50 50 48 46 45 44
21 20 19 18 17 16 16 17 17 17 16 15 15 14 17 20 22 24 26 30 33 37 39 40 39 39 38 36 35 34 35 36 38 39 41 43 45 46 46 45 44 42 41 40
19 19 18 17 16 15 15 15 16 15 15 13 12 13 14 16 18 21 24 27 31 33 34 32 32 31 28 26 25 25 27 28 30 33 35 36 38 41 41 40 39 37 36 35
18 18 17 16 15 14 14 14 14 13 12 11 10 10 12 14 17 19 22 25 28 29 28 26 24 22 18 16 15 15 17 20 23 26 28 29 31 34 34 33 32 32 31 31
17 17 16 15 14 13 12 12 11 10 10 10 9 9 10 13 16 17 20 22 24 24 23 22 19 15 11 8 8 8 11 14 18 20 23 24 26 27 28 28 27 27 27 27
16 16 15 14 12 11 10 10 9 8 8 8 8 8 10 12 14 16 18 19 20 21 20 18 16 12 9 4 1 5 8 12 15 17 19 21 22 23 22 22 22 22 23 24
15 15 14 13 11 10 9 8 8 8 8 7 7 8 11 12 13 15 16 17 18 18 17 16 14 12 10 8 8 9 11 14 15 17 18 19 19 19 19 18 19 19 21 22
14 14 13 12 11 10 9 8 7 7 7 6 7 8 10 11 11 12 13 14 15 15 15 14 12 11 11 11 12 12 14 15 15 16 16 16 16 16 16 17 18 20 23 26
14 14 13 12 11 10 9 8 7 7 6 6 7 7 8 9 10 10 11 12 12 12 12 11 11 11 11 11 12 12 13 14 14 14 14 13 13 13 14 16 18 20 23 26
14 14 14 13 12 11 9 9 8 7 7 6 6 7 8 9 9 9 9 10 10 10 9 9 9 10 10 10 11 11 11 11 10 9 9 10 10 11 13 16 18 20 23 26
14 14 14 14 13 12 11 10 9 8 7 7 7 7 8 8 8 8 8 9 9 9 8 7 7 7 7 8 7 7 7 6 5 4 5 6 7 10 12 15 17 21 24 27
14 15 14 14 13 13 12 10 9 9 8 7 7 8 8 8 8 7 7 7 7 7 7 6 5 5 5 5 5 4 3 2 0 2 4 6 8 11 13 16 19 22 25 28
16 16 16 15 14 13 12 12 10 9 9 8 8 8 8 8 8 7 6 6 6 6 6 5 5 4 4 4 4 4 3 4 4 6 7 9 11 13 16 18 21 24 26 28
19 18 17 16 15 14 13 13 11 10 9 9 8 8 8 8 8 7 7 7 6 6 5 5 5 5 5 5 5 5 5 6 8 9 11 13 14 16 18 20 22 24 27 29
Wind_Direction
216 220 223 225 226 229 230 233 235 237 238 240 241 242 243 244 245 246 247 248 249 250 251 251 251 250 248 248 248 249 250 251 252 253 256 258 261 261 262 263 266 268 270 271
214 217 221 224 226 229 231 233 235 238 239 240 241 242 244 246 246 248 248 249 249 249 250 251 252 251 251 250 250 250 251 251 252 253 255 257 259 261 263 264 266 268 269 270
214 215 219 223 225 228 231 233 235 238 241 242 242 242 245 247 248 249 250 251 251 251 251 251 252 253 253 253 253 253 253 253 253 254 255 256 258 261 263 265 266 266 266 266
210 212 216 219 222 225 229 231 234 236 239 243 244 243 242 247 248 249 250 252 253 253 253 254 254 255 255 255 255 255 255 255 255 255 256 257 259 261 263 263 263 263 264 265
209 211 214 217 219 222 226 228 231 234 238 242 245 248 239 245 247 249 251 253 254 255 256 257 257 258 258 258 259 258 258 258 257 257 257 257 259 259 260 261 262 263 263 263
206 208 211 213 215 218 220 223 227 231 236 240 242 249 248 247 248 250 252 255 256 258 259 260 261 261 261 261 261 260 260 259 259 258 257 258 258 258 258 259 259 260 261 261
202 203 206 208 210 210 212 217 223 229 234 240 242 249 257 258 257 258 259 260 261 262 262 263 263 263 263 262 261 261 260 259 258 257 257 257 257 257 257 257 257 257 258 259
198 199 201 202 203 203 206 214 223 231 236 241 247 253 263 268 269 270 269 269 268 268 267 267 267 266 265 264 263 261 260 258 257 256 255 255 255 255 255 254 254 255 255 257
197 197 197 199 201 205 209 219 229 240 245 250 255 261 269 274 277 278 277 276 275 274 274 273 272 270 268 266 264 262 260 258 256 254 253 252 252 252 252 251 251 252 253 255
196 197 199 203 207 212 218 226 237 248 257 261 264 273 281 281 281 281 281 281 281 281 280 279 277 275 273 270 267 264 261 258 255 253 252 250 249 249 248 248 248 249 251 252
198 201 204 209 214 219 226 235 246 257 265 272 276 285 284 284 283 284 285 286 287 287 286 285 283 280 277 274 271 267 263 258 255 251 249 247 245 245 245 244 245 246 247 250
201 205 209 215 220 226 235 245 254 263 269 276 284 292 287 286 288 291 292 294 295 294 292 291 288 285 281 277 273 268 262 257 253 249 246 243 241 241 241 240 241 243 245 247
205 210 215 221 227 234 243 251 258 265 273 280 286 289 288 289 294 297 299 301 301 300 299 296 292 289 284 279 273 267 260 254 249 245 242 240 238 237 236 236 237 239 242 245
209 214 221 227 232 239 246 254 263 270 275 279 285 286 287 295 299 302 306 308 309 308 307 303 298 294 288 281 273 265 257 251 246 241 237 236 234 233 231 231 233 235 239 243
214 220 225 230 234 241 248 257 264 270 276 283 288 292 295 302 307 312 316 318 320 319 318 313 307 302 294 284 274 263 253 245 238 232 230 230 229 227 226 227 228 232 237 241
218 222 227 232 237 242 248 255 261 268 276 286 293 300 307 317 321 324 326 328 331 331 331 328 321 315 304 288 272 255 242 232 225 220 219 220 220 219 219 220 224 230 234 240
219 223 228 234 239 242 245 254 260 267 278 290 297 307 319 327 328 331 334 338 340 341 343 343 340 335 323 300 270 236 213 204 202 203 205 205 206 208 211 215 221 227 232 239
219 223 229 233 237 243 253 255 257 268 279 289 299 312 323 327 332 336 342 347 351 352 355 358 0 5 9 20 117 169 177 180 182 184 186 188 191 196 203 209 218 227 235 243
221 224 227 231 236 240 245 247 250 262 278 289 304 317 325 327 332 340 346 353 359 1 6 12 20 31 44 63 92 117 133 145 155 162 167 174 180 187 196 207 217 228 239 249
219 220 222 224 229 233 235 238 245 256 270 288 304 317 326 331 335 343 348 356 4 9 15 24 33 48 62 78 97 112 123 132 140 148 157 167 175 185 196 211 226 236 244 253
215 215 216 219 223 228 229 234 239 250 264 283 300 315 326 331 337 344 350 358 5 12 21 32 46 59 72 85 97 109 119 127 136 145 158 174 191 202 212 224 235 246 257 265
213 213 214 216 221 224 227 234 241 252 262 277 295 311 320 327 335 341 346 354 1 9 20 35 54 67 76 86 96 107 115 125 138 155 175 187 198 215 231 240 251 262 270 276
214 215 217 221 224 227 231 239 245 253 262 276 291 305 314 320 327 334 337 344 353 4 17 30 47 65 75 81 85 94 104 115 140 166 198 223 234 246 259 267 274 280 284 288
217 220 221 224 225 227 233 240 247 255 261 274 290 302 307 314 318 322 332 340 348 359 8 21 35 48 58 53 50 52 69 75 142 265 271 274 276 279 282 285 288 291 294 297
221 224 223 224 226 228 234 240 247 254 261 274 285 295 301 306 311 312 316 324 331 343 355 3 11 15 16 18 18 9 359 343 325 313 303 298 295 294 295 297 298 300 301 303
224 225 224 224 226 229 235 241 247 253 260 270 279 287 292 296 300 301 305 309 315 319 328 339 346 350 351 351 347 340 330 322 315 309 305 303 303 303 304 305 305 306 307 307
Height
5667 5674 5680 5686 5691 5696 5702 5707 5712 5717 5721 5725 5730 5734 5739 5742 5744 5746 5749 5751 5754 5756 5757 5758 5760 5762 5764 5766 5767 5769 5770 5772 5773 5774 5775 5776 5777 5778 5779 5780 5780 5780 5780 5780
5663 5670 5675 5679 5685 5690 5696 5701 5706 5710 5714 5718 5722 5727 5731 5734 5736 5738 5740 5743 5745 5747 5748 5750 5751 5753 5755 5756 5758 5759 5761 5762 5764 5765 5767 5767 5767 5768 5769 5771 5772 5772 5772 5771
5659 5666 5670 5675 5680 5685 5690 5695 5700 5704 5707 5711 5716 5721 5725 5727 5728 5730 5732 5734 5736 5738 5740 5741 5742 5743 5745 5746 5748 5749 5751 5752 5754 5755 5756 5757 5757 5758 5760 5762 5763 5763 5762 5762
5654 5660 5665 5670 5675 5680 5685 5689 5694 5698 5702 5705 5709 5714 5720 5719 5721 5722 5724 5725 5727 5728 5730 5731 5732 5733 5734 5736 5737 5738 5739 5741 5742 5743 5745 5746 5748 5749 5751 5751 5752 5752 5752 5753
5652 5657 5661 5666 5671 5676 5680 5684 5689 5692 5696 5700 5703 5706 5714 5713 5713 5714 5716 5717 5718 5719 5720 5721 5722 5723 5723 5724 5724 5725 5726 5728 5729 5731 5733 5734 5736 5738 5739 5740 5741 5741 5742 5743
5649 5654 5658 5663 5667 5672 5677 5681 5684 5687 5691 5696 5698 5700 5704 5705 5706 5706 5708 5708 5709 5710 5710 5710 5711 5711 5711 5711 5711 5711 5712 5713 5714 5716 5719 5721 5723 5725 5727 5728 5729 5730 5730 5732
5646 5651 5656 5660 5664 5669 5674 5678 5681 5684 5687 5691 5693 5694 5696 5697 5697 5698 5699 5699 5699 5699 5699 5699 5699 5698 5697 5696 5696 5696 5697 5698 5698 5700 5703 5706 5708 5711 5713 5715 5717 5718 5719 5720
5645 5649 5654 5658 5662 5666 5670 5674 5678 5681 5683 5686 5687 5689 5690 5689 5688 5688 5689 5689 5688 5687 5686 5686 5684 5683 5682 5681 5680 5679 5679 5681 5682 5683 5686 5689 5693 5696 5698 5701 5704 5705 5707 5709
5642 5648 5652 5656 5660 5664 5667 5670 5674 5676 5678 5680 5682 5683 5683 5681 5680 5679 5678 5677 5676 5674 5673 5671 5669 5667 5665 5663 5662 5661 5662 5663 5665 5666 5669 5673 5677 5680 5683 5687 5690 5693 5695 5697
5641 5646 5650 5654 5658 5661 5665 5667 5670 5671 5672 5674 5676 5676 5675 5673 5671 5670 5668 5666 5664 5661 5659 5656 5653 5650 5647 5645 5643 5642 5643 5644 5647 5650 5653 5656 5660 5664 5668 5672 5676 5680 5683 5686
5640 5645 5649 5652 5655 5659 5662 5664 5665 5666 5668 5668 5668 5672 5668 5665 5663 5661 5659 5656 5652 5649 5645 5640 5636 5632 5628 5626 5624 5623 5623 5625 5627 5631 5635 5639 5644 5648 5653 5658 5663 5667 5671 5675
5638 5643 5646 5650 5653 5655 5658 5659 5661 5662 5663 5662 5662 5666 5660 5657 5654 5652 5650 5646 5642 5636 5631 5625 5619 5614 5609 5606 5604 5604 5605 5606 5609 5613 5618 5623 5628 5633 5639 5645 5650 5656 5660 5664
5636 5641 5644 5647 5652 5653 5654 5655 5656 5657 5657 5656 5656 5660 5653 5650 5647 5645 5641 5637 5632 5625 5618 5611 5604 5597 5591 5588 5586 5586 5587 5589 5593 5597 5602 5608 5614 5620 5626 5633 5639 5645 5650 5655
5634 5638 5642 5645 5647 5648 5650 5651 5651 5651 5652 5652 5651 5651 5648 5644 5642 5639 5634 5629 5622 5615 5606 5597 5589 5582 5576 5572 5570 5570 5572 5575 5579 5584 5590 5596 5602 5609 5616 5623 5630 5637 5642 5647
5632 5636 5638 5641 5643 5644 5646 5647 5647 5647 5647 5647 5647 5645 5643 5640 5636 5633 5628 5622 5615 5606 5596 5587 5579 5571 5565 5561 5560 5559 5561 5565 5569 5575 5581 5587 5594 5601 5609 5616 5624 5630 5635 5640
5630 5633 5635 5637 5639 5640 5641 5642 5642 5642 5642 5642 5641 5640 5638 5635 5631 5627 5622 5616 5609 5600 5591 5582 5573 5566 5560 5557 5555 5554 5556 5559 5563 5569 5575 5582 5589 5597 5605 5612 5619 5624 5629 5633
5627 5629 5632 5634 5635 5636 5638 5638 5638 5639 5638 5638 5637 5636 5634 5631 5627 5623 5618 5612 5605 5597 5588 5580 5572 5565 5560 5556 5554 5553 5555 5557 5562 5567 5573 5580 5587 5595 5602 5609 5615 5620 5624 5627
5624 5626 5628 5630 5632 5633 5636 5635 5635 5635 5635 5635 5634 5632 5630 5628 5624 5620 5615 5610 5603 5596 5588 5581 5574 5568 5563 5559 5557 5556 5557 5560 5564 5569 5574 5580 5587 5594 5600 5606 5611 5615 5619 5621
5622 5624 5626 5627 5629 5630 5632 5632 5632 5633 5633 5632 5631 5629 5627 5624 5622 5618 5613 5608 5603 5597 5590 5584 5578 5572 5568 5564 5563 5562 5563 5565 5568 5572 5577 5582 5588 5593 5599 5604 5608 5612 5614 5616
5619 5621 5624 5625 5626 5628 5630 5630 5630 5631 5631 5630 5628 5627 5625 5622 5620 5617 5612 5608 5603 5598 5593 5587 5582 5578 5574 5571 5570 5569 5570 5571 5574 5577 5581 5585 5590 5594 5598 5602 5605 5607 5609 5610
5616 5619 5621 5622 5623 5625 5627 5627 5628 5630 5630 5627 5626 5624 5622 5620 5618 5615 5611 5608 5604 5600 5596 5591 5587 5583 5580 5578 5577 5576 5576 5577 5579 5581 5584 5588 5591 5594 5597 5600 5602 5603 5604 5604
5614 5616 5618 5619 5621 5625 5624 5625 5626 5626 5625 5624 5623 5622 5620 5618 5616 5613 5610 5608 5604 5601 5598 5594 5591 5588 5586 5584 5582 5582 5582 5583 5584 5586 5588 5590 5592 5594 5596 5597 5598 5599 5599 5598
5612 5614 5615 5618 5621 5621 5621 5622 5623 5623 5622 5622 5621 5620 5618 5616 5614 5612 5610 5607 5604 5602 5599 5597 5594 5592 5590 5589 5588 5587 5587 5587 5588 5589 5590 5591 5593 5594 5594 5595 5594 5594 5593 5591
5609 5610 5612 5614 5616 5617 5618 5619 5619 5619 5619 5619 5618 5617 5616 5614 5612 5611 5609 5606 5604 5602 5600 5598 5596 5594 5593 5592 5591 5590 5590 5590 5590 5590 5591 5591 5592 5592 5591 5591 5590 5588 5586 5583
5605 5607 5609 5610 5612 5614 5615 5615 5616 5616 5616 5616 5615 5614 5613 5612 5611 5609 5608 5606 5604 5602 5601 5599 5597 5596 5595 5594 5593 5592 5591 5591 5591 5591 5590 5590 5589 5588 5587 5586 5584 5582 5579 5576
5601 5603 5605 5607 5609 5610 5611 5612 5613 5613 5613 5613 5612 5612 5611 5610 5609 5607 5606 5605 5603 5602 5601 5599 5598 5597 5595 5594 5593 5593 5592 5591 5590 5590 5589 5587 5586 5584 5582 5580 5578 5575 5572 5569